This demonstration page uses our WeatherBlox Daily Observations layout. Learn more.

Left ArrowRight Arrow

44.8408, -93.29828

Hourly Observations for September 23, 2016

Temp ( °F °C ) Dew Point ( °F °C ) Humidity (%) Winds ( mph kmh ) Pressure ( in mb ) Visibility ( mi km ) Precip ( " mm )
12:53 am 00:53 Partly Cloudy 61 16.1 56 13.3 84 84 NE 10 17 30.08 1019 10 16 0.00 0.00
1:53 am 01:53 Mostly Cloudy 61 16.1 56 13.3 84 84 ENE 6 9 30.10 1019 10 16 0.00 0.00
2:53 am 02:53 Cloudy 60 15.6 56 13.3 86 86 NE 8 13 30.10 1019 10 16 0.00 0.00
3:11 am 03:11 Cloudy 60 15.6 56 13.3 86 86 ENE 10 17 30.06 1018 10 16 0.00 0.00
3:53 am 03:53 Cloudy 60 15.6 56 13.3 86 86 ENE 8 13 30.10 1019 10 16 0.00 0.00
4:53 am 04:53 Cloudy 60 15.6 56 13.3 86 86 ENE 8 13 30.11 1020 10 16 0.00 0.00
5:34 am 05:34 Cloudy 61 16.1 56 13.3 84 84 ENE 13 20 30.09 1019 10 16 0.00 0.00
5:53 am 05:53 Cloudy 60 15.6 56 13.3 86 86 ENE 12 19 30.11 1020 10 16 0.00 0.00
6:53 am 06:53 Cloudy 60 15.6 57 13.9 90 90 ENE 12 19 30.13 1020 10 16 0.00 0.00
7:53 am 07:53 Cloudy 61 16.1 57 13.9 87 87 E 13 20 30.13 1020 10 16 0.00 0.00
8:30 am 08:30 Cloudy 63 17 57 14 83 83 ESE 12 19 30.12 1020 10 16 0.00 0.00
8:53 am 08:53 Cloudy 62 16.7 57 13.9 84 84 E 10 17 30.15 1021 10 16 0.00 0.00
9:11 am 09:11 Cloudy 63 17.2 57 13.9 81 81 E 14 22 30.12 1020 10 16 0.00 0.00
9:53 am 09:53 Mostly Cloudy 64 17.8 57 13.9 78 78 E 15 24 30.13 1020 10 16 0.00 0.00
10:10 am 10:10 Mostly Cloudy 66 19 57 14 73 73 E 15 24 30.09 1019 10 16 0.00 0.00
10:53 am 10:53 Partly Cloudy 68 20 59 15 73 73 E 13 20 30.12 1020 10 16 0.00 0.00
11:53 am 11:53 Mostly Cloudy 70 21.1 59 15 68 68 E 14 22 30.11 1020 10 16 0.00 0.00
12:10 pm 12:10 Mostly Cloudy 72 22 59 15 65 65 ESE 10 17 30.09 1019 10 16 0.00 0.00
12:53 pm 12:53 Cloudy 70 21.1 59 15 68 68 ESE 13 20 30.11 1020 10 16 0.00 0.00
1:37 pm 13:37 Cloudy 69 20.6 59 15 70 70 ESE 9 15 30.09 1019 10 16 0.00 0.00
1:48 pm 13:48 Cloudy 70 21 59 15 69 69 ESE 10 17 30.09 1019 10 16 0.00 0.00
1:53 pm 13:53 Cloudy 69 20.6 60 15.6 73 73 SE 10 17 30.11 1020 10 16 0.00 0.00
2:53 pm 14:53 Cloudy with Light Rain 68 20 60 15.6 76 76 SSE 7 11 30.12 1020 10 16 0.00 0.03
3:49 pm 15:49 Cloudy with Rain 64 18 61 16 88 88 SSE 12 19 30.06 1018 3 4 0.14 3.56
3:53 pm 15:53 Cloudy with Rain 65 18.3 61 16.1 87 87 SE 12 19 30.09 1019 4 6 0.15 3.81
4:53 pm 16:53 Cloudy with Rain 65 18.3 61 16.1 87 87 ESE 12 19 30.09 1019 4 6 0.09 2.29
5:26 pm 17:26 Cloudy with Light Rain 64 18 61 16 88 88 ESE 14 22 30.06 1018 5 8 0.00 0.00
5:37 pm 17:37 Cloudy with Nearby Thunderstorms 64 17.8 61 16.1 90 90 ESE 10 17 30.06 1018 5 8 0.09 2.29
5:45 pm 17:45 Cloudy with Nearby Thunderstorms 65 18.3 61 16.1 87 87 SE 10 17 30.06 1018 3 4 0.11 2.79
5:53 pm 17:53 Cloudy with Nearby Thunderstorms 64 17.8 61 16.1 90 90 ESE 13 20 30.09 1019 3 5 0.13 3.30
5:55 pm 17:55 Cloudy with Rain 64 17.8 61 16.1 90 90 SE 10 17 30.06 1018 3 5 0.01 0.25
6:00 pm 18:00 Cloudy with Thunderstorms 64 17.8 61 16.1 90 90 ESE 12 19 30.06 1018 3 4 0.02 0.51
6:11 pm 18:11 Cloudy with Strong Thunderstorms 64 17.8 61 16.1 90 90 E 17 28 30.03 1017 2 2 0.12 3.05
6:14 pm 18:14 Cloudy with Heavy Rain 64 18 61 16 88 88 ESE 17 28 30.06 1018 1 2 0.00 0.00
6:30 pm 18:30 Cloudy with Light Rain 64 17.8 61 16.1 90 90 ESE 9 15 30.06 1018 2 3 0.25 6.35
6:32 pm 18:32 Cloudy with Light Rain 64 18 61 16 88 88 E 10 17 30.06 1018 5 8 0.00 0.00
6:53 pm 18:53 Cloudy 64 17.8 60 15.6 87 87 ESE 15 24 30.09 1019 10 16 0.26 6.60
7:53 pm 19:53 Mostly Cloudy 64 17.8 60 15.6 87 87 ESE 13 20 30.07 1018 10 16 0.00 0.03
8:27 pm 20:27 Mostly Cloudy 64 17.8 60 15.6 87 87 SE 12 19 30.06 1018 10 16 0.00 0.00
8:53 pm 20:53 Mostly Cloudy 64 17.8 60 15.6 87 87 ESE 13 20 30.08 1019 10 16 0.00 0.00
9:53 pm 21:53 Cloudy 65 18.3 60 15.6 84 84 SE 9 15 30.08 1019 10 16 0.00 0.00
10:53 pm 22:53 Cloudy 65 18.3 60 15.6 84 84 SE 12 19 30.07 1018 10 16 0.00 0.00
11:53 pm 23:53 Cloudy 65 18.3 60 15.6 84 84 SE 14 22 30.07 1018 10 16 0.00 0.00

Powered by AerisWeather